Year,Month,Day,Hour,Minute,Value (Times are PST for temperature in C)
2018,03,31,00,00,2.60
2018,03,31,00,01,2.60
2018,03,31,00,02,2.60
2018,03,31,00,03,2.50
2018,03,31,00,04,2.50
2018,03,31,00,05,2.50
2018,03,31,00,06,2.50
2018,03,31,00,07,2.50
2018,03,31,00,08,2.40
2018,03,31,00,09,2.40
2018,03,31,00,10,2.40
2018,03,31,00,11,2.40
2018,03,31,00,12,2.40
2018,03,31,00,13,2.30
2018,03,31,00,14,2.30
2018,03,31,00,15,2.30
2018,03,31,00,16,2.30
2018,03,31,00,17,2.30
2018,03,31,00,18,2.30
2018,03,31,00,19,2.30
2018,03,31,00,20,2.20
2018,03,31,00,21,2.20
2018,03,31,00,22,2.20
2018,03,31,00,23,2.20
2018,03,31,00,24,2.20
2018,03,31,00,25,2.20
2018,03,31,00,26,2.20
2018,03,31,00,27,2.20
2018,03,31,00,28,2.20
2018,03,31,00,29,2.20
2018,03,31,00,30,2.20
2018,03,31,00,31,2.20
2018,03,31,00,32,2.10
2018,03,31,00,33,2.10
2018,03,31,00,34,2.10
2018,03,31,00,35,2.10
2018,03,31,00,36,2.10
2018,03,31,00,37,2.10
2018,03,31,00,38,2.10
2018,03,31,00,39,2.10
2018,03,31,00,40,2.10
2018,03,31,00,41,2.10
2018,03,31,00,42,2.10
2018,03,31,00,43,2.00
2018,03,31,00,44,2.00
2018,03,31,00,45,2.00
2018,03,31,00,46,2.00
2018,03,31,00,47,2.00
2018,03,31,00,48,2.00
2018,03,31,00,49,1.90
2018,03,31,00,50,1.90
2018,03,31,00,51,1.90
2018,03,31,00,52,1.90
2018,03,31,00,53,1.90
2018,03,31,00,54,1.90
2018,03,31,00,55,1.90
2018,03,31,00,56,1.90
2018,03,31,00,57,1.90
2018,03,31,00,58,1.90
2018,03,31,00,59,1.90
2018,03,31,01,00,1.80
2018,03,31,01,01,1.80
2018,03,31,01,02,1.80
2018,03,31,01,03,1.80
2018,03,31,01,04,1.80
2018,03,31,01,05,1.80
2018,03,31,01,06,1.80
2018,03,31,01,07,1.80
2018,03,31,01,08,1.80
2018,03,31,01,09,1.80
2018,03,31,01,10,1.70
2018,03,31,01,11,1.70
2018,03,31,01,12,1.70
2018,03,31,01,13,1.70
2018,03,31,01,14,1.70
2018,03,31,01,15,1.70
2018,03,31,01,16,1.70
2018,03,31,01,17,1.70
2018,03,31,01,18,1.70
2018,03,31,01,19,1.70
2018,03,31,01,20,1.60
2018,03,31,01,21,1.60
2018,03,31,01,22,1.60
2018,03,31,01,23,1.60
2018,03,31,01,24,1.60
2018,03,31,01,25,1.60
2018,03,31,01,26,1.60
2018,03,31,01,27,1.60
2018,03,31,01,28,1.60
2018,03,31,01,29,1.50
2018,03,31,01,30,1.50
2018,03,31,01,31,1.50
2018,03,31,01,32,1.50
2018,03,31,01,33,1.50
2018,03,31,01,34,1.50
2018,03,31,01,35,1.50
2018,03,31,01,36,1.50
2018,03,31,01,37,1.50
2018,03,31,01,38,1.50
2018,03,31,01,39,1.50
2018,03,31,01,40,1.40
2018,03,31,01,41,1.40
2018,03,31,01,42,1.40
2018,03,31,01,43,1.40
2018,03,31,01,44,1.40
2018,03,31,01,45,1.40
2018,03,31,01,46,1.40
2018,03,31,01,47,1.40
2018,03,31,01,48,1.40
2018,03,31,01,49,1.40
2018,03,31,01,50,1.40
2018,03,31,01,51,1.40
2018,03,31,01,52,1.30
2018,03,31,01,53,1.30
2018,03,31,01,54,1.30
2018,03,31,01,55,1.30
2018,03,31,01,56,1.30
2018,03,31,01,57,1.30
2018,03,31,01,58,1.30
2018,03,31,01,59,1.30
2018,03,31,02,00,1.30
2018,03,31,02,01,1.30
2018,03,31,02,02,1.30
2018,03,31,02,03,1.30
2018,03,31,02,04,1.30
2018,03,31,02,05,1.30
2018,03,31,02,06,1.30
2018,03,31,02,07,1.30
2018,03,31,02,08,1.30
2018,03,31,02,09,1.30
2018,03,31,02,10,1.30
2018,03,31,02,11,1.30
2018,03,31,02,12,1.30
2018,03,31,02,13,1.20
2018,03,31,02,14,1.20
2018,03,31,02,15,1.20
2018,03,31,02,16,1.20
2018,03,31,02,17,1.20
2018,03,31,02,18,1.20
2018,03,31,02,19,1.20
2018,03,31,02,20,1.30
2018,03,31,02,21,1.30
2018,03,31,02,22,1.30
2018,03,31,02,23,1.30
2018,03,31,02,24,1.30
2018,03,31,02,25,1.30
2018,03,31,02,26,1.30
2018,03,31,02,27,1.30
2018,03,31,02,28,1.30
2018,03,31,02,29,1.30
2018,03,31,02,30,1.30
2018,03,31,02,31,1.30
2018,03,31,02,32,1.30
2018,03,31,02,33,1.20
2018,03,31,02,34,1.20
2018,03,31,02,35,1.20
2018,03,31,02,36,1.20
2018,03,31,02,37,1.20
2018,03,31,02,38,1.20
2018,03,31,02,39,1.20
2018,03,31,02,40,1.20
2018,03,31,02,41,1.20
2018,03,31,02,42,1.20
2018,03,31,02,43,1.20
2018,03,31,02,44,1.20
2018,03,31,02,45,1.20
2018,03,31,02,46,1.20
2018,03,31,02,47,1.20
2018,03,31,02,48,1.20
2018,03,31,02,49,1.20
2018,03,31,02,50,1.20
2018,03,31,02,51,1.20
2018,03,31,02,52,1.20
2018,03,31,02,53,1.20
2018,03,31,02,54,1.20
2018,03,31,02,55,1.20
2018,03,31,02,56,1.20
2018,03,31,02,57,1.20
2018,03,31,02,58,1.20
2018,03,31,02,59,1.20
2018,03,31,03,00,1.10
2018,03,31,03,01,1.10
2018,03,31,03,02,1.10
2018,03,31,03,03,1.10
2018,03,31,03,04,1.10
2018,03,31,03,05,1.10
2018,03,31,03,06,1.10
2018,03,31,03,07,1.10
2018,03,31,03,08,1.10
2018,03,31,03,09,1.10
2018,03,31,03,10,1.10
2018,03,31,03,11,1.10
2018,03,31,03,12,1.10
2018,03,31,03,13,1.10
2018,03,31,03,14,1.10
2018,03,31,03,15,1.10
2018,03,31,03,16,1.10
2018,03,31,03,17,1.10
2018,03,31,03,18,1.10
2018,03,31,03,19,1.10
2018,03,31,03,20,1.00
2018,03,31,03,21,1.00
2018,03,31,03,22,1.00
2018,03,31,03,23,1.00
2018,03,31,03,24,1.00
2018,03,31,03,25,1.00
2018,03,31,03,26,1.00
2018,03,31,03,27,0.90
2018,03,31,03,28,1.00
2018,03,31,03,29,0.90
2018,03,31,03,30,0.90
2018,03,31,03,31,1.00
2018,03,31,03,32,1.00
2018,03,31,03,33,1.00
2018,03,31,03,34,0.90
2018,03,31,03,35,0.90
2018,03,31,03,36,0.90
2018,03,31,03,37,0.90
2018,03,31,03,38,0.90
2018,03,31,03,39,0.90
2018,03,31,03,40,0.90
2018,03,31,03,41,0.90
2018,03,31,03,42,0.90
2018,03,31,03,43,0.90
2018,03,31,03,44,0.90
2018,03,31,03,45,0.90
2018,03,31,03,46,0.90
2018,03,31,03,47,0.90
2018,03,31,03,48,0.90
2018,03,31,03,49,0.90
2018,03,31,03,50,0.90
2018,03,31,03,51,0.90
2018,03,31,03,52,0.80
2018,03,31,03,53,0.80
2018,03,31,03,54,0.80
2018,03,31,03,55,0.80
2018,03,31,03,56,0.80
2018,03,31,03,57,0.80
2018,03,31,03,58,0.80
2018,03,31,03,59,0.80
2018,03,31,04,00,0.80
2018,03,31,04,01,0.80
2018,03,31,04,02,0.80
2018,03,31,04,03,0.80
2018,03,31,04,04,0.80
2018,03,31,04,05,0.80
2018,03,31,04,06,0.80
2018,03,31,04,07,0.80
2018,03,31,04,08,0.80
2018,03,31,04,09,0.80
2018,03,31,04,10,0.80
2018,03,31,04,11,0.70
2018,03,31,04,12,0.70
2018,03,31,04,13,0.70
2018,03,31,04,14,0.70
2018,03,31,04,15,0.70
2018,03,31,04,16,0.70
2018,03,31,04,17,0.70
2018,03,31,04,18,0.70
2018,03,31,04,19,0.70
2018,03,31,04,20,0.70
2018,03,31,04,21,0.70
2018,03,31,04,22,0.70
2018,03,31,04,23,0.70
2018,03,31,04,24,0.70
2018,03,31,04,25,0.60
2018,03,31,04,26,0.60
2018,03,31,04,27,0.60
2018,03,31,04,28,0.60
2018,03,31,04,29,0.60
2018,03,31,04,30,0.60
2018,03,31,04,31,0.60
2018,03,31,04,32,0.60
2018,03,31,04,33,0.60
2018,03,31,04,34,0.60
2018,03,31,04,35,0.60
2018,03,31,04,36,0.60
2018,03,31,04,37,0.60
2018,03,31,04,38,0.60
2018,03,31,04,39,0.60
2018,03,31,04,40,0.60
2018,03,31,04,41,0.50
2018,03,31,04,42,0.50
2018,03,31,04,43,0.50
2018,03,31,04,44,0.50
2018,03,31,04,45,0.50
2018,03,31,04,46,0.50
2018,03,31,04,47,0.50
2018,03,31,04,48,0.40
2018,03,31,04,49,0.40
2018,03,31,04,50,0.40
2018,03,31,04,51,0.40
2018,03,31,04,52,0.40
2018,03,31,04,53,0.40
2018,03,31,04,54,0.40
2018,03,31,04,55,0.40
2018,03,31,04,56,0.40
2018,03,31,04,57,0.40
2018,03,31,04,58,0.40
2018,03,31,04,59,0.40
2018,03,31,05,00,0.40
2018,03,31,05,01,0.40
2018,03,31,05,02,0.40
2018,03,31,05,03,0.40
2018,03,31,05,04,0.40
2018,03,31,05,05,0.40
2018,03,31,05,06,0.40
2018,03,31,05,07,0.40
2018,03,31,05,08,0.40
2018,03,31,05,09,0.40
2018,03,31,05,10,0.40
2018,03,31,05,11,0.40
2018,03,31,05,12,0.40
2018,03,31,05,13,0.40
2018,03,31,05,14,0.40
2018,03,31,05,15,0.40
2018,03,31,05,16,0.40
2018,03,31,05,17,0.40
2018,03,31,05,18,0.40
2018,03,31,05,19,0.40
2018,03,31,05,20,0.40
2018,03,31,05,21,0.40
2018,03,31,05,22,0.40
2018,03,31,05,23,0.40
2018,03,31,05,24,0.40
2018,03,31,05,25,0.30
2018,03,31,05,26,0.30
2018,03,31,05,27,0.30
2018,03,31,05,28,0.30
2018,03,31,05,29,0.30
2018,03,31,05,30,0.30
2018,03,31,05,31,0.30
2018,03,31,05,32,0.30
2018,03,31,05,33,0.30
2018,03,31,05,34,0.30
2018,03,31,05,35,0.30
2018,03,31,05,36,0.30
2018,03,31,05,37,0.30
2018,03,31,05,38,0.30
2018,03,31,05,39,0.30
2018,03,31,05,40,0.30
2018,03,31,05,41,0.30
2018,03,31,05,42,0.30
2018,03,31,05,43,0.30
2018,03,31,05,44,0.30
2018,03,31,05,45,0.30
2018,03,31,05,46,0.30
2018,03,31,05,47,0.30
2018,03,31,05,48,0.30
2018,03,31,05,49,0.30
2018,03,31,05,50,0.30
2018,03,31,05,51,0.30
2018,03,31,05,52,0.30
2018,03,31,05,53,0.30
2018,03,31,05,54,0.30
2018,03,31,05,55,0.30
2018,03,31,05,56,0.30
2018,03,31,05,57,0.30
2018,03,31,05,58,0.30
2018,03,31,05,59,0.30
2018,03,31,06,00,0.30
2018,03,31,06,01,0.30
2018,03,31,06,02,0.30
2018,03,31,06,03,0.30
2018,03,31,06,04,0.30
2018,03,31,06,05,0.30
2018,03,31,06,06,0.30
2018,03,31,06,07,0.30
2018,03,31,06,08,0.30
2018,03,31,06,09,0.30
2018,03,31,06,10,0.30
2018,03,31,06,11,0.20
2018,03,31,06,12,0.20
2018,03,31,06,13,0.20
2018,03,31,06,14,0.20
2018,03,31,06,15,0.20
2018,03,31,06,16,0.20
2018,03,31,06,17,0.20
2018,03,31,06,18,0.20
2018,03,31,06,19,0.10
2018,03,31,06,20,0.10
2018,03,31,06,21,0.10
2018,03,31,06,22,0.10
2018,03,31,06,23,0.10
2018,03,31,06,24,0.10
2018,03,31,06,25,0.10
2018,03,31,06,26,0.10
2018,03,31,06,27,0.10
2018,03,31,06,28,0.10
2018,03,31,06,29,0.10
2018,03,31,06,30,0.00
2018,03,31,06,31,0.00
2018,03,31,06,32,0.00
2018,03,31,06,33,0.00
2018,03,31,06,34,0.00
2018,03,31,06,35,0.00
2018,03,31,06,36,0.00
2018,03,31,06,37,-0.10
2018,03,31,06,38,-0.10
2018,03,31,06,39,-0.10
2018,03,31,06,40,-0.10
2018,03,31,06,41,-0.10
2018,03,31,06,42,-0.10
2018,03,31,06,43,-0.10
2018,03,31,06,44,-0.10
2018,03,31,06,45,-0.10
2018,03,31,06,46,-0.10
2018,03,31,06,47,-0.10
2018,03,31,06,48,-0.10
2018,03,31,06,49,-0.10
2018,03,31,06,50,-0.10
2018,03,31,06,51,-0.10
2018,03,31,06,52,-0.10
2018,03,31,06,53,-0.10
2018,03,31,06,54,-0.10
2018,03,31,06,55,-0.10
2018,03,31,06,56,-0.10
2018,03,31,06,57,-0.10
2018,03,31,06,58,-0.10
2018,03,31,06,59,-0.10
2018,03,31,07,00,-0.10
2018,03,31,07,01,-0.10
2018,03,31,07,02,-0.10
2018,03,31,07,03,-0.10
2018,03,31,07,04,-0.10
2018,03,31,07,05,-0.10
2018,03,31,07,06,-0.10
2018,03,31,07,07,-0.10
2018,03,31,07,08,-0.10
2018,03,31,07,09,-0.10
2018,03,31,07,10,-0.10
2018,03,31,07,11,-0.10
2018,03,31,07,12,-0.10
2018,03,31,07,13,-0.10
2018,03,31,07,14,-0.10
2018,03,31,07,15,-0.10
2018,03,31,07,16,-0.10
2018,03,31,07,17,-0.10
2018,03,31,07,18,-0.10
2018,03,31,07,19,-0.10
2018,03,31,07,20,-0.10
2018,03,31,07,21,-0.10
2018,03,31,07,22,-0.10
2018,03,31,07,23,-0.10
2018,03,31,07,24,-0.10
2018,03,31,07,25,-0.10
2018,03,31,07,26,-0.10
2018,03,31,07,27,-0.10
2018,03,31,07,28,-0.10
2018,03,31,07,29,-0.10
2018,03,31,07,30,-0.10
2018,03,31,07,31,-0.10
2018,03,31,07,32,-0.10
2018,03,31,07,33,-0.10
2018,03,31,07,34,-0.10
2018,03,31,07,35,-0.10
2018,03,31,07,36,-0.10
2018,03,31,07,37,-0.10
2018,03,31,07,38,0.00
2018,03,31,07,39,0.00
2018,03,31,07,40,0.00
2018,03,31,07,41,0.00
2018,03,31,07,42,0.00
2018,03,31,07,43,0.00
2018,03,31,07,44,0.00
2018,03,31,07,45,0.00
2018,03,31,07,46,0.00
2018,03,31,07,47,0.00
2018,03,31,07,48,0.00
2018,03,31,07,49,0.10
2018,03,31,07,50,0.10
2018,03,31,07,51,0.10
2018,03,31,07,52,0.10
2018,03,31,07,53,0.10
2018,03,31,07,54,0.10
2018,03,31,07,55,0.10
2018,03,31,07,56,0.20
2018,03,31,07,57,0.20
2018,03,31,07,58,0.20
2018,03,31,07,59,0.20
2018,03,31,08,00,0.20
2018,03,31,08,01,0.20
2018,03,31,08,02,0.20
2018,03,31,08,03,0.30
2018,03,31,08,04,0.30
2018,03,31,08,05,0.30
2018,03,31,08,06,0.30
2018,03,31,08,07,0.30
2018,03,31,08,08,0.30
2018,03,31,08,09,0.30
2018,03,31,08,10,0.30
2018,03,31,08,11,0.30
2018,03,31,08,12,0.30
2018,03,31,08,13,0.30
2018,03,31,08,14,0.30
2018,03,31,08,15,0.30
2018,03,31,08,16,0.30
2018,03,31,08,17,0.40
2018,03,31,08,18,0.40
2018,03,31,08,19,0.40
2018,03,31,08,20,0.40
2018,03,31,08,21,0.50
2018,03,31,08,22,0.50
2018,03,31,08,23,0.50
2018,03,31,08,24,0.50
2018,03,31,08,25,0.50
2018,03,31,08,26,0.60
2018,03,31,08,27,0.60
2018,03,31,08,28,0.60
2018,03,31,08,29,0.60
2018,03,31,08,30,0.60
2018,03,31,08,31,0.60
2018,03,31,08,32,0.70
2018,03,31,08,33,0.70
2018,03,31,08,34,0.70
2018,03,31,08,35,0.70
2018,03,31,08,36,0.70
2018,03,31,08,37,0.80
2018,03,31,08,38,0.80
2018,03,31,08,39,0.80
2018,03,31,08,40,0.90
2018,03,31,08,41,0.90
2018,03,31,08,42,0.90
2018,03,31,08,43,1.00
2018,03,31,08,44,1.00
2018,03,31,08,45,1.10
2018,03,31,08,46,1.10
2018,03,31,08,47,1.10
2018,03,31,08,48,1.10
2018,03,31,08,49,1.20
2018,03,31,08,50,1.20
2018,03,31,08,51,1.30
2018,03,31,08,52,1.30
2018,03,31,08,53,1.40
2018,03,31,08,54,1.50
2018,03,31,08,55,1.50
2018,03,31,08,56,1.60
2018,03,31,08,57,1.70
2018,03,31,08,58,1.70
2018,03,31,08,59,1.80
2018,03,31,09,00,1.80
2018,03,31,09,01,1.80
2018,03,31,09,02,1.80
2018,03,31,09,03,1.80
2018,03,31,09,04,1.80
2018,03,31,09,05,1.80
2018,03,31,09,06,1.80
2018,03,31,09,07,1.80
2018,03,31,09,08,1.80
2018,03,31,09,09,1.80
2018,03,31,09,10,1.80
2018,03,31,09,11,1.80
2018,03,31,09,12,1.80
2018,03,31,09,13,1.80
2018,03,31,09,14,1.90
2018,03,31,09,15,1.90
2018,03,31,09,16,1.90
2018,03,31,09,17,1.90
2018,03,31,09,18,1.90
2018,03,31,09,19,1.90
2018,03,31,09,20,2.00
2018,03,31,09,21,2.00
2018,03,31,09,22,2.00
2018,03,31,09,23,2.10
2018,03,31,09,24,2.10
2018,03,31,09,25,2.20
2018,03,31,09,26,2.20
2018,03,31,09,27,2.30
2018,03,31,09,28,2.30
2018,03,31,09,29,2.40
2018,03,31,09,30,2.40
2018,03,31,09,31,2.50
2018,03,31,09,32,2.50
2018,03,31,09,33,2.60
2018,03,31,09,34,2.60
2018,03,31,09,35,2.60
2018,03,31,09,36,2.70
2018,03,31,09,37,2.70
2018,03,31,09,38,2.70
2018,03,31,09,39,2.70
2018,03,31,09,40,2.70
2018,03,31,09,41,2.70
2018,03,31,09,42,2.70
2018,03,31,09,43,2.70
2018,03,31,09,44,2.70
2018,03,31,09,45,2.70
2018,03,31,09,46,2.80
2018,03,31,09,47,2.80
2018,03,31,09,48,2.80
2018,03,31,09,49,2.80
2018,03,31,09,50,2.90
2018,03,31,09,51,2.90
2018,03,31,09,52,2.90
2018,03,31,09,53,3.00
2018,03,31,09,54,3.10
2018,03,31,09,55,3.10
2018,03,31,09,56,3.20
2018,03,31,09,57,3.20
2018,03,31,09,58,3.30
2018,03,31,09,59,3.30
2018,03,31,10,00,3.30
2018,03,31,10,01,3.40
2018,03,31,10,02,3.40
2018,03,31,10,03,3.50
2018,03,31,10,04,3.60
2018,03,31,10,05,3.60
2018,03,31,10,06,3.70
2018,03,31,10,07,3.70
2018,03,31,10,08,3.70
2018,03,31,10,09,3.70
2018,03,31,10,10,3.80
2018,03,31,10,11,3.80
2018,03,31,10,12,3.90
2018,03,31,10,13,4.00
2018,03,31,10,14,4.10
2018,03,31,10,15,4.10
2018,03,31,10,16,4.20
2018,03,31,10,17,4.20
2018,03,31,10,18,4.30
2018,03,31,10,19,4.40
2018,03,31,10,20,4.40
2018,03,31,10,21,4.50
2018,03,31,10,22,4.50
2018,03,31,10,23,4.60
2018,03,31,10,24,4.60
2018,03,31,10,25,4.60
2018,03,31,10,26,4.70
2018,03,31,10,27,4.70
2018,03,31,10,28,4.70
2018,03,31,10,29,4.70
2018,03,31,10,30,4.70
2018,03,31,10,31,4.70
2018,03,31,10,32,4.70
2018,03,31,10,33,4.70
2018,03,31,10,34,4.70
2018,03,31,10,35,4.70
2018,03,31,10,36,4.70
2018,03,31,10,37,4.70
2018,03,31,10,38,4.70
2018,03,31,10,39,4.70
2018,03,31,10,40,4.70
2018,03,31,10,41,4.70
2018,03,31,10,42,4.80
2018,03,31,10,43,4.80
2018,03,31,10,44,4.80
2018,03,31,10,45,4.80
2018,03,31,10,46,4.80
2018,03,31,10,47,4.80
2018,03,31,10,48,4.90
2018,03,31,10,49,4.90
2018,03,31,10,50,4.90
2018,03,31,10,51,5.00
2018,03,31,10,52,5.00
2018,03,31,10,53,5.10
2018,03,31,10,54,5.20
2018,03,31,10,55,5.20
2018,03,31,10,56,5.30
2018,03,31,10,57,5.30
2018,03,31,10,58,5.30
2018,03,31,10,59,5.30
2018,03,31,11,00,5.30
2018,03,31,11,01,5.30
2018,03,31,11,02,5.30
2018,03,31,11,03,5.40
2018,03,31,11,04,5.40
2018,03,31,11,05,5.50
2018,03,31,11,06,5.50
2018,03,31,11,07,5.60
2018,03,31,11,08,5.70
2018,03,31,11,09,5.80
2018,03,31,11,10,6.00
2018,03,31,11,11,6.10
2018,03,31,11,12,6.20
2018,03,31,11,13,6.30
2018,03,31,11,14,6.30
2018,03,31,11,15,6.40
2018,03,31,11,16,6.50
2018,03,31,11,17,6.60
2018,03,31,11,18,6.70
2018,03,31,11,19,6.80
2018,03,31,11,20,6.90
2018,03,31,11,21,6.90
2018,03,31,11,22,7.00
2018,03,31,11,23,7.10
2018,03,31,11,24,7.20
2018,03,31,11,25,7.30
2018,03,31,11,26,7.40
2018,03,31,11,27,7.40
2018,03,31,11,28,7.50
2018,03,31,11,29,7.60
2018,03,31,11,30,7.70
2018,03,31,11,31,7.80
2018,03,31,11,32,7.90
2018,03,31,11,33,7.90
2018,03,31,11,34,8.00
2018,03,31,11,35,8.10
2018,03,31,11,36,8.10
2018,03,31,11,37,8.10
2018,03,31,11,38,8.10
2018,03,31,11,39,8.10
2018,03,31,11,40,8.00
2018,03,31,11,41,8.00
2018,03,31,11,42,8.00
2018,03,31,11,43,7.90
2018,03,31,11,44,7.90
2018,03,31,11,45,7.90
2018,03,31,11,46,7.90
2018,03,31,11,47,7.90
2018,03,31,11,48,8.00
2018,03,31,11,49,8.00
2018,03,31,11,50,8.00
2018,03,31,11,51,8.00
2018,03,31,11,52,8.00
2018,03,31,11,53,8.10
2018,03,31,11,54,8.10
2018,03,31,11,55,8.20
2018,03,31,11,56,8.30
2018,03,31,11,57,8.30
2018,03,31,11,58,8.40
2018,03,31,11,59,8.50
2018,03,31,12,00,8.50
2018,03,31,12,01,8.60
2018,03,31,12,02,8.60
2018,03,31,12,03,8.70
2018,03,31,12,04,8.70
2018,03,31,12,05,8.80
2018,03,31,12,06,8.90
2018,03,31,12,07,9.00
2018,03,31,12,08,9.10
2018,03,31,12,09,9.10
2018,03,31,12,10,9.20
2018,03,31,12,11,9.30
2018,03,31,12,12,9.30
2018,03,31,12,13,9.40
2018,03,31,12,14,9.40
2018,03,31,12,15,9.40
2018,03,31,12,16,9.50
2018,03,31,12,17,9.60
2018,03,31,12,18,9.60
2018,03,31,12,19,9.70
2018,03,31,12,20,9.90
2018,03,31,12,21,10.10
2018,03,31,12,22,10.20
2018,03,31,12,23,10.40
2018,03,31,12,24,10.50
2018,03,31,12,25,10.60
2018,03,31,12,26,10.70
2018,03,31,12,27,10.80
2018,03,31,12,28,10.80
2018,03,31,12,29,10.90
2018,03,31,12,30,10.90
2018,03,31,12,31,10.90
2018,03,31,12,32,10.80
2018,03,31,12,33,10.90
2018,03,31,12,34,10.90
2018,03,31,12,35,11.00
2018,03,31,12,36,11.10
2018,03,31,12,37,11.10
2018,03,31,12,38,11.20
2018,03,31,12,39,11.20
2018,03,31,12,40,11.20
2018,03,31,12,41,11.20
2018,03,31,12,42,11.20
2018,03,31,12,43,11.30
2018,03,31,12,44,11.30
2018,03,31,12,45,11.40
2018,03,31,12,46,11.40
2018,03,31,12,47,11.30
2018,03,31,12,48,11.30
2018,03,31,12,49,11.30
2018,03,31,12,50,11.30
2018,03,31,12,51,11.30
2018,03,31,12,52,11.40
2018,03,31,12,53,11.40
2018,03,31,12,54,11.40
2018,03,31,12,55,11.40
2018,03,31,12,56,11.50
2018,03,31,12,57,11.50
2018,03,31,12,58,11.60
2018,03,31,12,59,11.60
2018,03,31,13,00,11.70
2018,03,31,13,01,11.70
2018,03,31,13,02,11.80
2018,03,31,13,03,11.80
2018,03,31,13,04,11.80
2018,03,31,13,05,11.80
2018,03,31,13,06,11.80
2018,03,31,13,07,11.90
2018,03,31,13,08,11.90
2018,03,31,13,09,11.90
2018,03,31,13,10,11.90
2018,03,31,13,11,11.90
2018,03,31,13,12,11.90
2018,03,31,13,13,11.90
2018,03,31,13,14,11.90
2018,03,31,13,15,11.90
2018,03,31,13,16,12.00
2018,03,31,13,17,12.10
2018,03,31,13,18,12.10
2018,03,31,13,19,12.20
2018,03,31,13,20,12.20
2018,03,31,13,21,12.30
2018,03,31,13,22,12.30
2018,03,31,13,23,12.40
2018,03,31,13,24,12.50
2018,03,31,13,25,12.70
2018,03,31,13,26,12.80
2018,03,31,13,27,13.00
2018,03,31,13,28,13.10
2018,03,31,13,29,13.10
2018,03,31,13,30,13.10
2018,03,31,13,31,13.10
2018,03,31,13,32,13.10
2018,03,31,13,33,13.20
2018,03,31,13,34,13.30
2018,03,31,13,35,13.40
2018,03,31,13,36,13.40
2018,03,31,13,37,13.40
2018,03,31,13,38,13.30
2018,03,31,13,39,13.30
2018,03,31,13,40,13.30
2018,03,31,13,41,13.30
2018,03,31,13,42,13.30
2018,03,31,13,43,13.30
2018,03,31,13,44,13.30
2018,03,31,13,45,13.30
2018,03,31,13,46,13.30
2018,03,31,13,47,13.40
2018,03,31,13,48,13.40
2018,03,31,13,49,13.50
2018,03,31,13,50,13.40
2018,03,31,13,51,13.40
2018,03,31,13,52,13.30
2018,03,31,13,53,13.20
2018,03,31,13,54,13.10
2018,03,31,13,55,13.00
2018,03,31,13,56,12.90
2018,03,31,13,57,12.90
2018,03,31,13,58,12.90
2018,03,31,13,59,12.90
2018,03,31,14,00,12.90
2018,03,31,14,01,13.00
2018,03,31,14,02,13.10
2018,03,31,14,03,13.10
2018,03,31,14,04,13.10
2018,03,31,14,05,13.00
2018,03,31,14,06,12.90
2018,03,31,14,07,12.80
2018,03,31,14,08,12.70
2018,03,31,14,09,12.60
2018,03,31,14,10,12.60
2018,03,31,14,11,12.50
2018,03,31,14,12,12.50
2018,03,31,14,13,12.50
2018,03,31,14,14,12.50
2018,03,31,14,15,12.40
2018,03,31,14,16,12.40
2018,03,31,14,17,12.30
2018,03,31,14,18,12.30
2018,03,31,14,19,12.30
2018,03,31,14,20,12.30
2018,03,31,14,21,12.30
2018,03,31,14,22,12.40
2018,03,31,14,23,12.50
2018,03,31,14,24,12.60
2018,03,31,14,25,12.70
2018,03,31,14,26,12.70
2018,03,31,14,27,12.80
2018,03,31,14,28,12.80
2018,03,31,14,29,12.80
2018,03,31,14,30,12.70
2018,03,31,14,31,12.60
2018,03,31,14,32,12.60
2018,03,31,14,33,12.60
2018,03,31,14,34,12.70
2018,03,31,14,35,12.70
2018,03,31,14,36,12.60
2018,03,31,14,37,12.70
2018,03,31,14,38,12.60
2018,03,31,14,39,12.60
2018,03,31,14,40,12.70
2018,03,31,14,41,12.70
2018,03,31,14,42,12.70
2018,03,31,14,43,12.70
2018,03,31,14,44,12.70
2018,03,31,14,45,12.70
2018,03,31,14,46,12.60
2018,03,31,14,47,12.40
2018,03,31,14,48,12.40
2018,03,31,14,49,12.40
2018,03,31,14,50,12.40
2018,03,31,14,51,12.40
2018,03,31,14,52,12.40
2018,03,31,14,53,12.40
2018,03,31,14,54,12.40
2018,03,31,14,55,12.30
2018,03,31,14,56,12.30
2018,03,31,14,57,12.20
2018,03,31,14,58,12.20
2018,03,31,14,59,12.20
2018,03,31,15,00,12.20
2018,03,31,15,01,12.20
2018,03,31,15,02,12.20
2018,03,31,15,03,12.20
2018,03,31,15,04,12.20
2018,03,31,15,05,12.20
2018,03,31,15,06,12.20
2018,03,31,15,07,12.20
2018,03,31,15,08,12.30
2018,03,31,15,09,12.30
2018,03,31,15,10,12.30
2018,03,31,15,11,12.40
2018,03,31,15,12,12.50
2018,03,31,15,13,12.60
2018,03,31,15,14,12.70
2018,03,31,15,15,12.70
2018,03,31,15,16,12.70
2018,03,31,15,17,12.70
2018,03,31,15,18,12.60
2018,03,31,15,19,12.50
2018,03,31,15,20,12.40
2018,03,31,15,21,12.40
2018,03,31,15,22,12.30
2018,03,31,15,23,12.30
2018,03,31,15,24,12.30
2018,03,31,15,25,12.40
2018,03,31,15,26,12.40
2018,03,31,15,27,12.40
2018,03,31,15,28,12.40
2018,03,31,15,29,12.40
2018,03,31,15,30,12.40
2018,03,31,15,31,12.40
2018,03,31,15,32,12.40
2018,03,31,15,33,12.40
2018,03,31,15,34,12.40
2018,03,31,15,35,12.30
2018,03,31,15,36,12.30
2018,03,31,15,37,12.30
2018,03,31,15,38,12.30
2018,03,31,15,39,12.40
2018,03,31,15,40,12.40
2018,03,31,15,41,12.40
2018,03,31,15,42,12.40
2018,03,31,15,43,12.40
2018,03,31,15,44,12.40
2018,03,31,15,45,12.30
2018,03,31,15,46,12.40
2018,03,31,15,47,12.40
2018,03,31,15,48,12.40
2018,03,31,15,49,12.40
2018,03,31,15,50,12.50
2018,03,31,15,51,12.50
2018,03,31,15,52,12.50
2018,03,31,15,53,12.60
2018,03,31,15,54,12.60
2018,03,31,15,55,12.60
2018,03,31,15,56,12.70
2018,03,31,15,57,12.80
2018,03,31,15,58,12.70
2018,03,31,15,59,12.80
2018,03,31,16,00,12.80
2018,03,31,16,01,12.80
2018,03,31,16,02,12.80
2018,03,31,16,03,12.70
2018,03,31,16,04,12.60
2018,03,31,16,05,12.60
2018,03,31,16,06,12.50
2018,03,31,16,07,12.50
2018,03,31,16,08,12.50
2018,03,31,16,09,12.40
2018,03,31,16,10,12.40
2018,03,31,16,11,12.40
2018,03,31,16,12,12.30
2018,03,31,16,13,12.30
2018,03,31,16,14,12.30
2018,03,31,16,15,12.30
2018,03,31,16,16,12.30
2018,03,31,16,17,12.30
2018,03,31,16,18,12.30
2018,03,31,16,19,12.30
2018,03,31,16,20,12.30
2018,03,31,16,21,12.30
2018,03,31,16,22,12.30
2018,03,31,16,23,12.30
2018,03,31,16,24,12.30
2018,03,31,16,25,12.30
2018,03,31,16,26,12.40
2018,03,31,16,27,12.40
2018,03,31,16,28,12.40
2018,03,31,16,29,12.30
2018,03,31,16,30,12.30
2018,03,31,16,31,12.30
2018,03,31,16,32,12.30
2018,03,31,16,33,12.30
2018,03,31,16,34,12.30
2018,03,31,16,35,12.30
2018,03,31,16,36,12.20
2018,03,31,16,37,12.20
2018,03,31,16,38,12.20
2018,03,31,16,39,12.10
2018,03,31,16,40,12.10
2018,03,31,16,41,12.10
2018,03,31,16,42,12.10
2018,03,31,16,43,12.10
2018,03,31,16,44,12.10
2018,03,31,16,45,12.10
2018,03,31,16,46,12.10
2018,03,31,16,47,12.10
2018,03,31,16,48,12.10
2018,03,31,16,49,12.10
2018,03,31,16,50,12.10
2018,03,31,16,51,12.10
2018,03,31,16,52,12.10
2018,03,31,16,53,12.00
2018,03,31,16,54,12.00
2018,03,31,16,55,12.00
2018,03,31,16,56,12.00
2018,03,31,16,57,12.00
2018,03,31,16,58,11.90
2018,03,31,16,59,12.00
2018,03,31,17,00,12.00
2018,03,31,17,01,11.90
2018,03,31,17,02,11.90
2018,03,31,17,03,11.90
2018,03,31,17,04,11.90
2018,03,31,17,05,11.90
2018,03,31,17,06,11.90
2018,03,31,17,07,11.90
2018,03,31,17,08,11.90
2018,03,31,17,09,11.90
2018,03,31,17,10,11.90
2018,03,31,17,11,11.90
2018,03,31,17,12,11.90
2018,03,31,17,13,11.90
2018,03,31,17,14,11.90
2018,03,31,17,15,11.90
2018,03,31,17,16,11.80
2018,03,31,17,17,11.80
2018,03,31,17,18,11.80
2018,03,31,17,19,11.80
2018,03,31,17,20,11.80
2018,03,31,17,21,11.70
2018,03,31,17,22,11.70
2018,03,31,17,23,11.70
2018,03,31,17,24,11.70
2018,03,31,17,25,11.70
2018,03,31,17,26,11.70
2018,03,31,17,27,11.60
2018,03,31,17,28,11.60
2018,03,31,17,29,11.60
2018,03,31,17,30,11.60
2018,03,31,17,31,11.60
2018,03,31,17,32,11.50
2018,03,31,17,33,11.50
2018,03,31,17,34,11.50
2018,03,31,17,35,11.50
2018,03,31,17,36,11.50
2018,03,31,17,37,11.40
2018,03,31,17,38,11.40
2018,03,31,17,39,11.40
2018,03,31,17,40,11.40
2018,03,31,17,41,11.40
2018,03,31,17,42,11.40
2018,03,31,17,43,11.40
2018,03,31,17,44,11.40
2018,03,31,17,45,11.40
2018,03,31,17,46,11.40
2018,03,31,17,47,11.40
2018,03,31,17,48,11.40
2018,03,31,17,49,11.40